Regional Weather Roundup
Issued by NWS San Angelo, TX

Home | Current Version | Previous Version | Text Only | Print | Product List | Glossary On
Versions: 1 2 3 4 5 6 7 8 9 10 11 12 13 14 15 16 17 18 19 20 21 22 23 24 25 26 27 28 29 30 31 32 33 34 35 36 37 38 39 40 41 42 43 44 45 46 47 48 49 50
000
ASUS44 KSJT 050410
RWRSJT
WEST CENTRAL TEXAS REGIONAL WEATHER ROUNDUP
NATIONAL WEATHER SERVICE SAN ANGELO TX
1000 PM CST WED MAR 04 2015

NOTE: "FAIR" INDICATES FEW OR NO CLOUDS BELOW 12,000 FEET WITH NO
SIGNIFICANT WEATHER AND/OR OBSTRUCTIONS TO VISIBILITY.

TXZ049-054-064>066-071>073-076>078-098-099-113-114-127-128-139-140-
154-155-168>170-050500
...LOCATIONS ACROSS WEST CENTRAL TEXAS...

CITY           SKY/WX    TMP DP  RH WIND       PRES   REMARKS
SAN ANGELO     MIX PCPN  29  25  85 N15G24    30.30R WCI  18
ABILENE        CLOUDY    24  21  88 N21G29    30.34R WCI   9
DYESS AFB      CLOUDY    24  21  88 N10       30.34R WCI  14
JUNCTION       LGT RAIN  34  32  92 N10       30.21R WCI  26
SWEETWATER     CLOUDY    24  23  96 N18G28    30.34S WCI  10
BROWNWOOD      LGT RAIN  28  27  93 N16G23    30.27R WCI  17
COLEMAN        LGT SNOW  28  27  93 N20G32    30.27R WCI  15
SONORA         CLOUDY    30  28  93 CALM      30.22R
OZONA          FLURRIES  32  28  86 N25G32    30.24R WCI  19
BRADY          NOT AVBL
$$

TEXAS PANHANDLE/OKLAHOMA PANHANDLE

CITY           SKY/WX    TMP DP  RH WIND       PRES   REMARKS
AMARILLO       CLOUDY    22  16  78 N12       30.36R WCI  10
BORGER         CLOUDY    25  14  63 N7        30.38R WCI  17
CANADIAN       CLOUDY    27  17  66 N3        30.39R
DALHART        LGT SNOW  22  18  85 N9        30.36R FOG     WCI  12
DUMAS          CLOUDY    21  17  83 N8        30.36R WCI  11
GUYMON         NOT AVBL
HEREFORD       CLOUDY    23  19  85 N12       30.36R WCI  12
PAMPA          MOCLDY    22  17  84 NW5       30.37R WCI  15
PERRYTON         N/A     26  20  79 CALM      30.37R
$$

SOUTHERN PANHANDLE/SOUTH PLAINS/ROLLING PLAINS

CITY           SKY/WX    TMP DP  RH WIND       PRES   REMARKS
LUBBOCK        FLURRIES  22  18  85 NE17G25   30.33R WCI   8
SNYDER         CLOUDY    23  19  87 N17       30.34R WCI   9
CHILDRESS      CLOUDY    23  19  85 N5        30.42R WCI  17
SEMINOLE       CLOUDY    24  19  80 NE16G24   30.34R WCI  11
$$

PERMIAN BASIN

CITY           SKY/WX    TMP DP  RH WIND       PRES   REMARKS
MIDLAND        CLOUDY    25  20  81 NE22G30   30.32R WCI  10
ODESSA         CLOUDY    25  20  81 NE18      30.32R WCI  11
WINK           CLOUDY    29  21  72 NE14      30.31R WCI  18
$$

FAR WEST/SOUTHWEST MOUNTAINS/TRANS PECOS

CITY           SKY/WX    TMP DP  RH WIND       PRES   REMARKS
ALPINE         CLOUDY    31  30  98 NE14      30.27R WCI  20
DRYDEN           N/A     37  33  85 N17G24    30.23R WCI  27
EL PASO        PTCLDY    49  33  54 E6        30.11R
FORT STOCKTON  FLURRIES  28  26  92 NE16      30.30R WCI  16
GUADALUPE PASS NOT AVBL
MARFA          MOCLDY    30  27  86 N21       30.17R WCI  17
PECOS          FLURRIES  30  27  90 NE10      30.35R WCI  21
$$

DALLAS/FORT WORTH METROPLEX

CITY           SKY/WX    TMP DP  RH WIND       PRES   REMARKS
DFW AIRPORT    FRZ RAIN  29  26  89 N24G30    30.29R WCI  15
FTW MEACHAM    FRZ RAIN  30  26  85 N16G30    30.30R FOG     WCI  19
DAL-EXECUTIVE  FRZ RAIN  30  27  88 N17G29    30.26R FOG     WCI  18
GRAND PRAIRIE  MOCLDY    31  29  94 N17       30.26R WCI  19
ADDISON        FLURRIES  30  29  97 N21G28    30.27R WCI  17
MESQUITE       CLOUDY    31  28  88 N18G29    30.23R WCI  19
LANCASTER      CLOUDY    31  26  83 N17G25    30.25R WCI  19
$$

NORTH CENTRAL TEXAS

CITY           SKY/WX    TMP DP  RH WIND       PRES   REMARKS
SHRMAN/DENISON CLOUDY    29  28  95 N17G24    30.28S FOG     WCI  17
GAINESVILLE    LGT SNOW  26  24  90 N18G26    30.33R WCI  13
BRIDGEPORT     LGT SNOW  27  27 100 N14G24    30.38R VSB 1   WCI  16
DENTON         LGT SNOW  28  24  85 N18G29    30.31R FOG     WCI  15
WAXAHACHIE     MIX PCPN  31  31 100 N20       30.26R WCI  19
GRANBURY       LGT SNOW  31  28  90 NW16G22   30.32F WCI  20
$$

WESTERN NORTH TEXAS

CITY           SKY/WX    TMP DP  RH WIND       PRES   REMARKS
WICHITA FALLS  CLOUDY    24  21  88 N16       30.39F FOG     WCI  11
VERNON         CLOUDY    25  19  80 N12       30.42S WCI  14
BRECKENRIDGE   FLURRIES  27  26  94 N9G21     30.35R WCI  18
COMANCHE       LGT SNOW  29  29 100 N22G28    30.27R WCI  15
$$

CENTRAL AND SOUTH CENTRAL TEXAS

CITY           SKY/WX    TMP DP  RH WIND       PRES   REMARKS
AUSTIN/BERGSTM CLOUDY    36  36 100 N24       30.16R WCI  24
WACO           LGT SNOW  32  30  92 N24G33    30.23R FOG     WCI  19
HILLSBORO      MIX PCPN  32  31  96 NW22G29   30.27R WCI  19
TEMPLE         CLOUDY    34  28  80 N24G33    30.18R WCI  21
KILLEEN-GRAY   LGT RAIN  32  32 100 NW23G29   30.22R FOG     WCI  19
FORT HOOD      DRZL/FOG  32  32 100 NW18G30   30.22R VSB 1   WCI  20
GEORGETOWN     CLOUDY    36  32  87 N16G26    30.21R WCI  26
LAGO VISTA     MIX PCPN  34  33  95 N13G25    30.17R WCI  25
SAN MARCOS     CLOUDY    37  34  87 N21G28    30.13R WCI  27
NEW BRAUNFELS  CLOUDY    39  34  82 N25G37    30.10R WCI  28
RANDOLPH AFB   CLOUDY    38  33  84 N30G39    30.09R WCI  25
SAN ANTONIO    CLOUDY    38  33  82 N17G33    30.09R WCI  28
STINSON        CLOUDY    39  33  79 N21G33    30.09R WCI  29
PLEASANTON     NOT AVBL
LA GRANGE      CLOUDY    39  37  93 N24G31    30.08R FOG     WCI  28
GIDDINGS       DRIZZLE   36  34  94 N18G29    30.14R WCI  25
$$

EAST TEXAS

CITY           SKY/WX    TMP DP  RH WIND       PRES   REMARKS
PARIS          CLOUDY    30  25  80 CALM      30.19S
CLARKSVILLE    NOT AVBL
TYLER          RAIN      35  32  88 N20       30.11R WCI  24
LONGVIEW       LGT RAIN  40  36  86 NE10G23   30.12R WCI  33
PALESTINE      DRIZZLE   35  35  99 N14       30.11R WCI  26
NACOGDOCHES    CLOUDY    43  37  81 N15G25    30.07R WCI  35
$$

TEXAS HILL COUNTRY AND EDWARDS PLATEAU

CITY           SKY/WX    TMP DP  RH WIND       PRES   REMARKS
LLANO          CLOUDY    34  32  93 N14G24    30.20F WCI  24
HORSESHOE BAY  CLOUDY    34  34 100 N14G26    30.19F WCI  25
KERRVILLE      FLURRIES  33  32  94 N16G28    30.14R WCI  23
FREDERICKSBRG  RAIN      32  31  95 NW16G25   30.21R WCI  21
ROCKSPRINGS    NOT AVBL
HONDO          CLOUDY    38  33  82 N29G40    30.10R WCI  26
UVALDE         LGT RAIN  39  37  91 NE22G29   30.03F WCI  29
DEL RIO        RAIN      40  36  86 NW14G28   30.19R FOG     WCI  32
$$

SOUTHEAST TEXAS

CITY           SKY/WX    TMP DP  RH WIND       PRES   REMARKS
COLLEGE STN    FLURRIES  37  34  89 N22G30    30.11R WCI  26
CALDWELL       DRIZZLE   34  34 100 NW21G29   30.16R WCI  22
CROCKETT       MIX PCPN  41  39  93 N12G22    30.08S WCI  34
BRENHAM        DRIZZLE   40  37  88 N20G30    30.08R WCI  31
HUNTSVILLE     LGT RAIN  39  37  92 NW12G21   30.06R WCI  32
CONROE         LGT RAIN  43  41  93 NW15G25   30.03R WCI  36
HOUSTON BUSH   CLOUDY    49  46  90 N18G24    29.99R
HOUSTON HOBBY  LGT RAIN  55  51  86 NW20      29.95R
PERLAND        CLOUDY    59  53  80 NW14G22   29.95R
WHARTON        CLOUDY    43  41  93 N23G33    30.01R WCI  34
$$

THE UPPER TEXAS COAST

CITY           SKY/WX    TMP DP  RH WIND       PRES   REMARKS
ORANGE         CLOUDY    69  68  98 S6        29.91R FOG
PORT ARTHUR    CLOUDY    70  68  93 S6        29.90R
GALVESTON      CLOUDY    67  67 100 S3        29.92R FOG
ANGLETON       LGT RAIN  52  51  97 NW15G23   29.93R
BAY CITY       LGT RAIN  54  52  93 N18G26    29.97R
$$

TEXAS COASTAL BEND, RIO GRANDE PLAINS DEEP SOUTH TEXAS

CITY           SKY/WX    TMP DP  RH WIND       PRES   REMARKS
VICTORIA       CLOUDY    44  42  93 N24G35    30.00R WCI  35
BEEVILLE       CLOUDY    48  46  91 N29G37    29.96R WCI  40
ROCKPORT       CLOUDY    67  66  97 N20G31    29.91R FOG
PORT ARANSAS   CLOUDY    66  66 100 NE3       29.88S FOG
PORT LAVACA    CLOUDY    49  47  90 N25G32    29.97R
CORPUS CHRISTI CLOUDY    69  66  90 E7        29.87R
KINGSVILLE NAS CLOUDY    69  69 100 NE6       29.87R FOG
COTULLA        CLOUDY    47  41  80 N22G32    30.05R WCI  39
LAREDO         CLOUDY    67  62  84 N14       29.94R
BROWNSVILLE    CLOUDY    73  70  90 SE7       29.84S
PORT ISABEL    CLOUDY    71  69  93 E7        29.84R FOG
HEBBRONVILLE   CLOUDY   N/A N/A N/A N9        29.90R
MCALLEN        CLOUDY    72  68  87 CALM      29.85R
WESLACO        CLOUDY    71  67  87 CALM      29.86R FOG
FALFURRIAS     CLOUDY    71  68  90 E3        29.85R
EDINBURG       CLOUDY    72  67  84 CALM      29.85R HAZE
$$


USA.gov is the U.S. government's official web portal to all federal, state and local government web resources and services.